CW9561 Weather Reports


time (UTC)temp
C
wind
direction
speed
KPH
gust
KPH
rain 1hr
cm
rain 24hr
cm
rain mn
cm
humidity
%
barometer
mb
20260508005032 7 208 0.0 0.0 0.00 0.00 0.10 77 1017.6
20260508004029 6 208 0.0 0.0 0.00 0.00 0.10 79 1017.6
20260508003023 6 306 0.0 0.0 0.00 0.00 0.10 80 1017.8
20260508002039 6 302 0.0 0.0 0.00 0.00 0.08 79 1018.2
20260508001033 6 329 0.0 0.0 0.00 0.00 0.08 81 1018.0
20260508000027 6 306 1.6 0.0 0.00 0.00 0.08 78 1018.0
20260507235041 6 280 1.6 0.0 0.00 0.00 0.05 75 1018.1
20260507233030 7 290 1.6 0.0 0.00 0.00 0.03 70 1018.3
20260507232024 9 290 1.6 0.0 0.00 0.00 0.03 62 1018.3
20260507231036 11 254 0.0 0.0 0.00 0.00 0.00 49 1018.2
20260507225033 12 253 3.2 0.0 0.00 0.00 0.00 45 1017.3
20260507224027 12 273 1.6 0.0 0.00 0.00 0.00 46 1017.7
20260507223038 11 298 1.6 0.0 0.00 0.00 0.00 49 1017.8
20260507222031 11 222 0.0 0.0 0.00 0.00 0.00 50 1017.9
20260507221027 12 333 1.6 0.0 0.00 0.00 0.00 46 1018.1
20260507220038 12 277 1.6 0.0 0.00 0.00 0.00 47 1018.3
20260507215033 11 219 1.6 0.0 0.00 0.00 0.00 51 1018.5
20260507212027 11 247 0.0 0.0 0.00 0.00 0.00 50 1019.0
20260507211021 10 259 1.6 0.0 0.00 0.00 0.00 52 1019.3
20260507210034 10 155 1.6 0.0 0.00 0.00 0.00 51 1018.7
20260507205029 10 211 1.6 0.0 0.00 0.00 0.00 50 1018.9
20260507203022 10 306 0.0 0.0 0.00 0.00 0.00 51 1019.5
20260507202039 10 245 1.6 0.0 0.00 0.00 0.00 51 1019.6
20260507201030 10 226 1.6 0.0 0.00 0.00 0.00 54 1019.7
20260507200022 10 219 0.0 0.0 0.00 0.00 0.00 55 1019.9
20260507194038 9 344 1.6 0.0 0.00 0.00 0.00 54 1020.2
20260507193032 10 33 1.6 0.0 0.00 0.00 0.00 50 1019.6
20260507192028 9 280 1.6 0.0 0.00 0.00 0.00 52 1019.9
20260507191020 9 200 1.6 0.0 0.00 0.00 0.00 47 1020.1
20260507190033 8 294 1.6 0.0 0.00 0.00 0.00 50 1020.3
20260507185031 8 271 3.2 0.0 0.00 0.00 0.00 48 1020.5
20260507184029 10 20 1.6 0.0 0.00 0.00 0.00 49 1020.5
20260507183021 10 146 3.2 0.0 0.00 0.00 0.00 50 1020.7
20260507182038 10 298 1.6 0.0 0.00 0.00 0.00 46 1020.8
20260507181030 9 245 1.6 0.0 0.00 0.00 0.00 50 1020.3
20260507175027 9 270 3.2 0.0 0.00 0.00 0.00 50 1020.5
20260507174026 8 202 3.2 0.0 0.00 0.00 0.00 47 1020.6
20260507172037 8 244 6.4 0.0 0.00 0.00 0.00 50 1020.8
20260507170030 7 209 4.8 0.0 0.00 0.00 0.00 54 1020.8
20260507164021 5 128 4.8 0.0 0.00 0.00 0.00 54 1021.1
20260507163033 5 210 3.2 0.0 0.00 0.00 0.00 55 1021.3
20260507162034 3 321 1.6 0.0 0.00 0.00 0.00 62 1021.6
20260507161028 2 94 4.8 0.0 0.00 0.00 0.00 63 1021.7
20260507160022 2 86 3.2 0.0 0.00 0.00 0.00 65 1021.9
20260507155036 1 14 3.2 0.0 0.00 0.00 0.00 63 1022.1
20260507153027 1 18 1.6 0.0 0.00 0.00 0.00 68 1021.3
20260507152021 0 360 4.8 0.0 0.00 0.00 0.00 70 1021.5
20260507151032 0 345 3.2 0.0 0.00 0.00 0.00 72 1021.7
20260507150024 -1 346 3.2 0.0 0.00 0.00 0.00 72 1021.9
20260507145019 0 360 1.6 0.0 0.00 0.00 0.00 72 1021.9
20260507144019 0 337 1.6 0.0 0.00 0.00 0.00 70 1022.0
20260507143035 0 58 1.6 0.0 0.00 0.00 0.00 70 1022.3
20260507142030 0 58 1.6 0.0 0.00 0.00 0.00 69 1022.3
20260507141025 0 35 1.6 0.0 0.00 0.00 0.00 70 1022.6
20260507140022 -1 52 1.6 0.0 0.00 0.00 0.00 69 1022.7
20260507135038 -1 80 1.6 0.0 0.00 0.00 0.00 71 1022.6
20260507134029 0 80 3.2 0.0 0.00 0.00 0.00 70 1022.5
20260507133024 -1 309 1.6 0.0 0.00 0.00 0.00 70 1022.7
20260507132020 -1 87 0.0 0.0 0.00 0.00 0.00 70 1022.2
20260507131033 -1 87 1.6 0.0 0.00 0.00 0.00 72 1022.0
20260507130030 -2 87 1.6 0.0 0.00 0.00 0.00 71 1022.1
20260507124037 -2 132 4.8 0.0 0.00 0.00 0.00 71 1022.0
20260507123029 -2 82 3.2 0.0 0.00 0.00 0.00 72 1021.9
20260507120022 -4 241 0.0 0.0 0.00 0.00 0.00 78 1021.7
20260507115033 -4 242 1.6 0.0 0.00 0.00 0.00 78 1021.7
20260507114026 -5 242 0.0 0.0 0.00 0.00 0.00 79 1021.5
20260507112022 -4 241 0.0 0.0 0.00 0.00 0.00 78 1021.8
20260507110031 -4 241 0.0 0.0 0.00 0.00 0.00 77 1021.6
20260507105023 -4 242 0.0 0.0 0.00 0.00 0.00 76 1021.7
20260507104020 -4 242 0.0 0.0 0.00 0.00 0.00 77 1021.5
20260507103037 -4 241 0.0 0.0 0.00 0.00 0.00 76 1021.8
20260507102034 -4 241 0.0 0.0 0.00 0.00 0.00 77 1021.7
20260507101027 -4 242 0.0 0.0 0.00 0.00 0.00 76 1021.6
20260507100032 -3 242 0.0 0.0 0.00 0.00 0.00 76 1021.7
20260507095032 -4 241 0.0 0.0 0.00 0.00 0.00 76 1021.6
20260507094025 -4 241 1.6 0.0 0.00 0.00 0.00 78 1021.7
20260507093038 -5 242 0.0 0.0 0.00 0.00 0.00 79 1021.5
20260507092028 -5 241 0.0 0.0 0.00 0.00 0.00 79 1021.7
20260507091023 -4 241 0.0 0.0 0.00 0.00 0.00 78 1021.9
20260507090029 -4 241 0.0 0.0 0.00 0.00 0.00 77 1021.6
20260507085027 -4 242 0.0 0.0 0.00 0.00 0.00 76 1021.9
20260507084039 -3 241 0.0 0.0 0.00 0.00 0.00 75 1022.5
20260507083030 -3 242 0.0 0.0 0.00 0.00 0.00 75 1022.3
20260507082026 -3 242 0.0 0.0 0.00 0.00 0.00 74 1022.3
20260507080034 -3 242 0.0 0.0 0.00 0.00 0.00 74 1022.5
20260507074022 -3 242 0.0 0.0 0.00 0.00 0.00 71 1022.4
20260507073037 -2 241 0.0 0.0 0.00 0.00 0.00 71 1022.6
20260507072033 -3 242 0.0 0.0 0.00 0.00 0.00 73 1022.7
20260507071025 -3 242 0.0 0.0 0.00 0.00 0.00 72 1022.8
20260507065036 -2 241 0.0 0.0 0.00 0.00 0.00 70 1022.4
20260507064032 -2 242 0.0 0.0 0.00 0.00 0.00 69 1022.5
20260507063030 -2 242 0.0 0.0 0.00 0.00 0.00 68 1022.4
20260507062022 -2 241 0.0 0.0 0.00 0.00 0.00 68 1022.4
20260507061036 -2 241 0.0 0.0 0.00 0.00 0.00 70 1022.3
20260507060025 -2 242 0.0 0.0 0.00 0.00 0.00 68 1022.1
20260507055020 -2 241 0.0 0.0 0.00 0.00 0.05 68 1022.1
20260507054018 -1 241 0.0 0.0 0.00 0.00 0.05 66 1021.9
20260507053037 -1 242 0.0 0.0 0.00 0.00 0.05 65 1021.8
20260507052030 -1 242 1.6 0.0 0.00 0.00 0.05 66 1021.8
20260507051022 -2 241 0.0 0.0 0.00 0.00 0.05 70 1022.1
20260507045034 -2 241 0.0 0.0 0.00 0.00 0.05 74 1022.3
20260507043040 -2 241 0.0 0.0 0.00 0.00 0.05 76 1022.3
20260507041029 -2 241 0.0 0.0 0.00 0.00 0.05 75 1022.8
20260507040023 -2 241 0.0 0.0 0.00 0.00 0.05 73 1022.7
20260507035038 -2 241 0.0 0.0 0.00 0.00 0.05 74 1022.8
20260507034030 -2 241 0.0 0.0 0.00 0.00 0.05 71 1022.6
20260507033042 -2 241 0.0 0.0 0.00 0.00 0.05 72 1022.5
20260507031031 -1 241 0.0 0.0 0.00 0.00 0.05 71 1022.0
20260507030030 -1 241 0.0 0.0 0.00 0.00 0.05 68 1021.8
20260507025023 -1 241 0.0 0.0 0.00 0.00 0.05 68 1021.8
20260507024033 -1 241 0.0 0.0 0.00 0.00 0.05 69 1021.4
20260507023026 -1 241 0.0 0.0 0.00 0.00 0.05 69 1021.4
20260507022024 -1 241 0.0 0.0 0.00 0.00 0.05 69 1021.3
20260507021040 0 241 0.0 0.0 0.00 0.00 0.05 67 1021.3
20260507020032 0 241 0.0 0.0 0.00 0.00 0.05 64 1020.9
20260507014037 0 241 0.0 0.0 0.00 0.00 0.05 62 1020.5
20260507013030 0 241 0.0 0.0 0.00 0.00 0.05 59 1020.2
20260507012027 1 241 0.0 0.0 0.00 0.00 0.05 58 1020.1
20260507011038 1 241 1.6 0.0 0.00 0.00 0.05 56 1020.1